Regional Weather Roundup
Issued by NWS Newport/Morehead, NC

Home | Current Version | Previous Version | Text Only | Print | Product List | Glossary On
Versions: 1 2 3 4 5 6 7 8 9 10 11 12 13 14 15 16 17 18 19 20 21 22 23 24 25 26 27 28 29 30 31 32 33 34 35 36 37 38 39 40 41 42 43 44 45 46 47 48 49 50
000
ASUS42 KMHX 210525
RWRMHX
WEATHER ROUNDUP FOR EASTERN NORTH CAROLINA
NATIONAL WEATHER SERVICE NEWPORT/MOREHEAD CITY NC
100 AM EDT FRI SEP 21 2018

NOTE: "FAIR" INDICATES FEW OR NO CLOUDS BELOW 12,000 FEET
WITH NO SIGNIFICANT WEATHER AND/OR OBSTRUCTIONS TO VISIBILITY

NCZ015>017-031-032-045>047-102-103-210600-
NORTH COAST

CITY           SKY/WX    TMP DP  RH WIND       PRES   REMARKS
EDENTON        MOCLDY    69  67  94 CALM      30.23S
ELIZABETH CITY FAIR      71  67  87 NE7       30.22S
KITTY HAWK     FAIR      72  61  68 CALM      30.19S
MANTEO         FAIR      71  61  70 E8        30.20F

$$

NCZ045>047-081-094-103-104-210600-
CENTRAL COAST

CITY           SKY/WX    TMP DP  RH WIND       PRES   REMARKS
FRISCO         FAIR      74  65  73 NE5       30.18F

$$

NCZ095-097-098-100-101-210600-
SOUTHERN COAST

CITY           SKY/WX    TMP DP  RH WIND       PRES   REMARKS
BEAUFORT       NOT AVBL
CEDAR ISLAND   NOT AVBL
JACKSONVILLE   FAIR      72  67  84 NE5       30.19F
PINEY ISLAND   NOT AVBL
WILMINGTON     FAIR      73  66  78 E5        30.19S


$$

NCZ011>013-027>030-043-044-078>080-089-090>093-098-210600-
COASTAL PLAIN

CITY           SKY/WX    TMP DP  RH WIND       PRES   REMARKS
AHOSKIE        FAIR      65  65 100 CALM      30.23S
CLINTON        NOT AVBL
ELIZABETHTOWN  FAIR      73  70  92 E3        30.19F
GOLDSBORO      FAIR      71  68  90 CALM      30.20R
GREENVILLE     FAIR      68  64  88 CALM      30.23S
HAVELOCK       NOT AVBL
KENANSVILLE    FAIR      68  66  94 CALM      30.21S FOG
KINSTON        FAIR      71  66  85 CALM      30.22S
NEW BERN       FAIR      68  67  96 NE3       30.21F
RICHLANDS      FAIR      68  67  96 CALM      30.21S
ROCKY MOUNT    FAIR      69  66  90 CALM      30.23R
WASHINGTON     FAIR      66  64  95 CALM      30.22S
WHITEVILLE     FAIR      74  70  89 CALM      30.18F

$$

AMZ130-135-150-152-154-156-158-170-250-252-270-ANZ085-086-088-633-658-670-210600-
MARINE OBSERVATIONS

STATION/POSITION TIME  TEMP    WIND        PRES    WAVE   SWELL
                       AIR SEA DIR/SP/G            HT/PER HT/PER
                 (UTC) (F)     (DEG/KT/KT) (MB)    (FT/S) (FT/S)
CHESAPEAKE LIGHT NOT AVBL
64 E VA BEACH    0450   74 75   50/ 12/ 14 1022.9    6/ 8   5/ 8
DUCK             0500   74 79              1022.6
2 E DUCK         0500      78                N/A     5/10   2/11
OREGON INLET     0448   73 79              1022.3
13E OREGON INLT  0446      78                N/A     7/11   3/11
HATTERAS CG      0500   75 80              1021.9
DIAMOND BUOY     0510   77 80   30/ 14/ 17 1021.9
CAPE LOOKOUT     0500           60/ 14/ 15 1022.1
BEAUFORT LAB     0500   71 81              1022.6
30 SE NEW RVR IN 0508   78      90/ 10/ 14   N/A
30 SE NEW RVR IN 0500      82                N/A     4/ 5   2/11
27 SE WRIGHTSVLE 0508   78 81   90/ 14/ 19   N/A
5 SE WRIGHTSVLE  0508   77 81  360/ 14/ 17   N/A
225 S CAPE HAT   0510      84   50/ 12/ 17 1019.4
41 SE CHARLESTON 0500   82 82   90/ 14/ 17 1020.9

$$



USA.gov is the U.S. government's official web portal to all federal, state and local government web resources and services.